Regional Weather Roundup
Issued by NWS

Home | Current Version | Previous Version | Graphics & Text | Print | Product List | Glossary Off
Versions: 1 2 3 4 5 6 7 8 9 10 11 12 13 14 15 16 17 18 19 20 21 22 23 24 25 26 27 28 29 30 31 32 33 34 35 36 37 38 39 40 41 42 43 44 45 46 47 48 49 50

000
ASUS43 KLOT 280208
RWRIL

ILLINOIS REGIONAL WEATHER ROUNDUP
NATIONAL WEATHER SERVICE CHICAGO/ROMEOVILLE IL
900 PM CDT THU APR 27 2017

NOTE: "FAIR" INDICATES FEW OR NO CLOUDS BELOW 12,000 FEET WITH NO
SIGNIFICANT WEATHER AND/OR OBSTRUCTIONS TO VISIBILITY.

* THESE STATIONS ARE NOT UNDER NWS QUALITY CONTROL. THEY ALSO MAY NOT
  REPORT WEATHER SUCH AS PRECIPITATION OR FOG.

ILZ001-002-007-009-015-016-024-280300-
NORTHWEST ILLINOIS

CITY           SKY/WX    TMP DP  RH WIND       PRES   REMARKS
MOLINE         CLEAR     40  36  86 CALM      29.80R
STERLING*      CLEAR     40  37  89 SW3       29.81R
SAVANNA*       CLEAR     43  35  74 W5        29.80R
$$

ILZ003-004-008-010-011-017-018-280300-
NORTH CENTRAL ILLINOIS

CITY           SKY/WX    TMP DP  RH WIND       PRES   REMARKS
ROCKFORD       CLOUDY    43  35  73 W7        29.80R
FREEPORT*      MOCLDY    40  35  81 W6        29.79R
ROCHELLE*      CLOUDY    40  37  91 SW7       29.81R
DE KALB*       CLOUDY    41  36  81 SW8       29.80R
PERU*          CLEAR     43  37  79 SW5       29.83R
$$

ILZ005-006-012>014-019>023-280300-
NORTHEAST ILLINOIS

CITY           SKY/WX    TMP DP  RH WIND       PRES   REMARKS
CHICAGO-OHARE  CLOUDY    45  34  65 W13G20    29.79R
CHICAGO-MIDWAY CLOUDY    46  36  68 W10G20    29.80R
AURORA         MOCLDY    43  37  79 SW6       29.81R
LANSING*       CLOUDY    46  41  81 W9        29.82R
JOLIET*        CLOUDY    46  39  75 W3        29.83R
WAUKEGAN       CLOUDY    43  34  70 SW8G21    29.77R
DUPAGE AIRPORT CLOUDY    43  37  79 W10       29.78S
KANKAKEE*      CLOUDY    47  41  78 CALM      29.85R
WHEELING       CLOUDY    44  35  70 W10G18    29.80R
MORRIS*        CLOUDY    45  38  78 CALM      29.82R
ROMEOVILLE*    CLOUDY    44  40  85 W9        29.82R
NORTHERLY ISL    N/A     46  35  65 SW7         N/A
$$

LMZ740>746-280300-
SOUTHERN LAKE MICHIGAN

STATION/POSITION SKY/WX   TEMP    WIND        PRES    VSBY  WAVE
                          AIR SEA DIR/SP/G                  HT/PER
                          (F)     (DEG/KT/KT) (MB)    (MI)  (FT/S)
SOUTHERN BUOY              42 41  270/ 14/ 17 1007.2          3/ 5
HARRISON CRIB              47     250/ 22/ 29   N/A
BURNHAM HARBOR             46     240/ 10/ 20   N/A
CALUMET HARBOR             46     220/  7/ 16 1009.0
BURNS HARBOR               49     240/ 19/ 25 1009.8R
MICHIGAN CITY              48     220/ 15/ 17   N/A
MICHIGAN CITY 6N           47 47                N/A           4/ 4
ST. JOSEPH                 46 48  250/ 14/ 17 1010.2R         3/ 4
$$

ILZ025>027-034>036-040-047-049-050-058-095>099-280300-
WEST-CENTRAL ILLINOIS

CITY           SKY/WX    TMP DP  RH WIND       PRES   REMARKS
QUINCY         CLOUDY    51  46  83 SE5       29.80R
GALESBURG*     CLOUDY    44  40  86 CALM      29.80R
MACOMB*        MOCLDY    47  43  86 S5        29.82R
JACKSONVILLE*  CLOUDY    52  44  73 CALM      29.82S
PITTSFIELD*    PTCLDY    49  47  91 E3        29.82R
$$

ILZ028>032-037-038-041>044-048-051>054-059>061-280300-
CENTRAL ILLINOIS

CITY           SKY/WX    TMP DP  RH WIND       PRES   REMARKS
PONTIAC        CLOUDY    49  45  85 CALM      29.85R
BLOOMINGTON    CLOUDY    50  43  77 S5        29.85R
DECATUR        CLOUDY    51  45  79 S7        29.86R
PEORIA         CLOUDY    50  43  77 S3        29.83R
LACON*         CLOUDY    44  42  93 CALM      29.83R
LINCOLN*       CLOUDY    53  45  74 CALM      29.85R
SPRINGFIELD    CLOUDY    53  47  79 SE3       29.84R
TAYLORVILLE    PTCLDY    49  45  84 SE3       29.85R
$$

ILZ033-039-045-046-055>057-062-063-280300-
EAST-CENTRAL ILLINOIS

CITY           SKY/WX    TMP DP  RH WIND       PRES   REMARKS
CHAMPAIGN      CLOUDY    50  44  80 SW9       29.88R
RANTOUL*       CLOUDY    51  45  80 SW6       29.86R
MATTOON        CLEAR     49  43  80 CALM      29.85R
PARIS*         CLOUDY    50  46  86 W5        29.88R
$$

ILZ079-100>102-280300-
SOUTHWEST ILLINOIS

CITY           SKY/WX    TMP DP  RH WIND       PRES   REMARKS
ALTON          MOCLDY    52  46  82 VRB5      29.81S
BELLEVILLE     CLOUDY    54  50  88 E3        29.82R
CAHOKIA*       PTCLDY    56  48  74 CALM      29.81R
$$

ILZ064>066-069>071-074>076-080>082-084>086-088>090-092>094-280300-
SOUTH-CENTRAL ILLINOIS

CITY           SKY/WX    TMP DP  RH WIND       PRES   REMARKS
CARBONDALE     PTCLDY    52  49  89 SE5       29.85R
CAIRO*         CLEAR     53  52  96 CALM      29.85R
EFFINGHAM*     CLEAR     47  47 100 CALM      29.87R
MARION         PTCLDY    52  52 100 SE5       29.86R
MT. VERNON     PTCLDY    48  46  93 NE3       29.85R
CENTRALIA*     PTCLDY    53  49  85 SE3       29.83R
SALEM*         PTCLDY    53  47  78 SE3       29.84R
METROPOLIS*    CLEAR     52  50  93 CALM      29.87R
$$

ILZ067-068-072-073-078-083-087-091-280300-
SOUTHEAST ILLINOIS

CITY           SKY/WX    TMP DP  RH WIND       PRES   REMARKS
LAWRENCEVILLE  CLEAR     50  46  86 SW3       29.88R
FLORA*         CLEAR     52  47  86 SE5       29.86R
FAIRFIELD*     CLEAR     50  48  93 CALM      29.85R
HARRISBURG*    PTCLDY    53  51  92 CALM      29.86R
ROBINSON*      CLEAR     48  45  89 S3        29.88R
CARMI*         CLEAR     51  49  92 SE3       29.86R
$$

ABBREVIATIONS USED IN REMARKS
   TC - TEMPERATURE IN CELSIUS
  WCI - WIND CHILL INDEX
   HX - HEAT INDEX
  VSB - VISIBILITY
$$




USA.gov is the U.S. government's official web portal to all federal, state and local government web resources and services.